Regional Weather Roundup
Issued by NWS

Home | Current Version | Previous Version | Graphics & Text | Print | Product List | Glossary On
Versions: 1 2 3 4 5 6 7 8 9 10 11 12 13 14 15 16 17 18 19 20 21 22 23 24 25 26 27 28 29 30 31 32 33 34 35 36 37 38 39 40 41 42 43 44 45 46 47 48 49 50
772
ASUS43 KLOT 241902
RWRIL

ILLINOIS REGIONAL WEATHER ROUNDUP
NATIONAL WEATHER SERVICE CHICAGO/ROMEOVILLE IL
100 PM CST TUE JAN 24 2017

NOTE: "FAIR" INDICATES FEW OR NO CLOUDS BELOW 12,000 FEET WITH NO
SIGNIFICANT WEATHER AND/OR OBSTRUCTIONS TO VISIBILITY.

* THESE STATIONS ARE NOT UNDER NWS QUALITY CONTROL. THEY ALSO MAY NOT
  REPORT WEATHER SUCH AS PRECIPITATION OR FOG.

ILZ001-002-007-009-015-016-024-242000-
NORTHWEST ILLINOIS

CITY           SKY/WX    TMP DP  RH WIND       PRES   REMARKS
MOLINE         CLOUDY    38  31  76 SE9       29.82F WCI  31
STERLING*      CLOUDY    36  32  85 SE3       29.85F
SAVANNA*       CLOUDY    35  31  85 SE3       29.84F
$$

ILZ003-004-008-010-011-017-018-242000-
NORTH CENTRAL ILLINOIS

CITY           SKY/WX    TMP DP  RH WIND       PRES   REMARKS
ROCKFORD       CLOUDY    37  31  78 E3        29.86F
FREEPORT*      CLOUDY    35  31  86 CALM      29.86F
ROCHELLE*      CLOUDY    36  31  85 CALM      29.85F
DE KALB*       CLOUDY    35  32  90 CALM      29.85F
PERU*          CLOUDY    37  31  79 S3        29.86F
$$

ILZ005-006-012>014-019>023-242000-
NORTHEAST ILLINOIS

CITY           SKY/WX    TMP DP  RH WIND       PRES   REMARKS
CHICAGO-OHARE  CLOUDY    35  31  85 W3        29.85F
CHICAGO-MIDWAY CLOUDY    37  31  78 W5        29.86F WCI  33
AURORA         CLOUDY    37  31  78 CALM      29.86F
LANSING*       CLOUDY    37  33  85 CALM      29.86F
JOLIET*        CLOUDY    39  33  79 N5        29.86F
WAUKEGAN       CLOUDY    37  32  82 W3        29.84F
DUPAGE AIRPORT CLOUDY    36  30  79 CALM      29.85F
KANKAKEE*      CLOUDY    38  32  77 CALM      29.86F
WHEELING       CLOUDY    36  31  82 VRB3      29.87F
MORRIS*        CLOUDY    38  32  78 N3        29.84F
ROMEOVILLE*    CLOUDY    37  34  89 W7        29.86F WCI  32
NORTHERLY ISL    N/A     36  30  79 SW5         N/A  WCI  32
$$

LMZ740>746-242000-
SOUTHERN LAKE MICHIGAN

STATION/POSITION SKY/WX   TEMP    WIND        PRES    VSBY  WAVE
                          AIR SEA DIR/SP/G                  HT/PER
                          (F)     (DEG/KT/KT) (MB)    (MI)  (FT/S)
HARRISON CRIB              36     330/  3/  4   N/A
BURNHAM HARBOR             36     260/  3/  9   N/A
CALUMET HARBOR             35      20/  5/  7 1011.0F
BURNS HARBOR               35     330/  4/  6 1012.2F
$$

ILZ025>027-034>036-040-047-049-050-058-095>099-242000-
WEST-CENTRAL ILLINOIS

CITY           SKY/WX    TMP DP  RH WIND       PRES   REMARKS
QUINCY         CLOUDY    39  32  76 SE10      29.77F WCI  32
GALESBURG*     CLOUDY    37  33  85 E7        29.80F WCI  31
MACOMB*        CLOUDY    37  33  85 SE14      29.85F WCI  29
JACKSONVILLE*  CLOUDY    42  33  71 SE9       29.82F
PITTSFIELD*    CLOUDY    43  34  71 SE12      29.80F
$$

ILZ028>032-037-038-041>044-048-051>054-059>061-242000-
CENTRAL ILLINOIS

CITY           SKY/WX    TMP DP  RH WIND       PRES   REMARKS
PONTIAC        CLOUDY    40  35  83 S3        29.87S
BLOOMINGTON    CLOUDY    38  33  82 S7        29.86F WCI  33
DECATUR        CLOUDY    39  35  86 E7        29.83F WCI  34
PEORIA         CLOUDY    39  32  76 SE9       29.84F WCI  33
LACON*         CLOUDY    38  32  79 SE5       29.85F WCI  34
LINCOLN*       CLOUDY    40  34  79 SE7       29.84F
SPRINGFIELD    CLOUDY    44  33  65 S12       29.86S
TAYLORVILLE    CLOUDY    42  33  72 SE7       29.86R
$$

ILZ033-039-045-046-055>057-062-063-242000-
EAST-CENTRAL ILLINOIS

CITY           SKY/WX    TMP DP  RH WIND       PRES   REMARKS
CHAMPAIGN      CLOUDY    40  32  73 S6        29.86F
RANTOUL*       CLOUDY    41  36  80 SW3       29.86F
MATTOON        CLOUDY    40  34  79 SE6       29.85F
PARIS*         CLOUDY    40  34  79 CALM      29.88S
$$

ILZ079-100>102-242000-
SOUTHWEST ILLINOIS

CITY           SKY/WX    TMP DP  RH WIND       PRES   REMARKS
ALTON          MOSUNNY   43  34  70 SE9       29.84F
BELLEVILLE     MOSUNNY   47  36  64 E7        29.83F
CAHOKIA*       SUNNY     49  36  61 SE13      29.82F
SPARTA*        SUNNY     47  35  62 SE6       29.86F
$$

ILZ064>066-069>071-074>076-080>082-084>086-088>090-092>094-242000-
SOUTH-CENTRAL ILLINOIS

CITY           SKY/WX    TMP DP  RH WIND       PRES   REMARKS
CARBONDALE     SUNNY     51  37  58 SE6       29.86F
CAIRO*         SUNNY     49  38  65 S7        29.87F
EFFINGHAM*     CLOUDY    44  37  74 E8        29.87F
MARION         SUNNY     52  36  54 S7        29.88F
MT. VERNON     SUNNY     50  36  58 VRB7      29.87F
CENTRALIA*     MOSUNNY   49  37  63 S7        29.86F
SALEM*         PTSUNNY   48  34  57 S7        29.86F
METROPOLIS*    SUNNY     51  36  57 CALM      29.88F
$$

ILZ067-068-072-073-078-083-087-091-242000-
SOUTHEAST ILLINOIS

CITY           SKY/WX    TMP DP  RH WIND       PRES   REMARKS
LAWRENCEVILLE  CLOUDY    42  34  73 S3        29.89F
FLORA*         PTSUNNY   46  37  69 SE6       29.88F
FAIRFIELD*     MOSUNNY   45  36  69 SE3       29.86F
HARRISBURG*    SUNNY     49  37  63 CALM      29.88F
ROBINSON*      CLOUDY    40  34  77 SW5       29.89F
CARMI*         PTSUNNY   46  37  71 SE8       29.89S
$$

ABBREVIATIONS USED IN REMARKS
   TC - TEMPERATURE IN CELSIUS
  WCI - WIND CHILL INDEX
   HX - HEAT INDEX
  VSB - VISIBILITY
$$





USA.gov is the U.S. government's official web portal to all federal, state and local government web resources and services.